FIN1M EFHK-EFTU

Flight info

Callsign FIN1M
Flight time 0h 45m
Altitude 16000
Route ADIVO DCT EXUPA TUAP
Aircraft A319/M-SDE3FGHIRWY/LB1

Departure

Time 2026-04-23 17:34
Airport Helsinki Vantaa Airport (EFHK)

Arrival

Time 2026-04-23 18:19
Airport Turku Airport (EFTU)
Time Latitude Longitude Altitude Speed Heading
2026-04-23 16:52 60.31931 24.96384 167 ft 0 kts 137°
2026-04-23 17:13 60.31933 24.96381 168 ft 0 kts 137°
2026-04-23 17:28 60.31931 24.96385 167 ft 2 kts 137°
2026-04-23 17:28 60.31912 24.96412 167 ft 4 kts 159°
2026-04-23 17:28 60.31877 24.96373 167 ft 10 kts 226°
2026-04-23 17:29 60.31853 24.96209 167 ft 14 kts 274°
2026-04-23 17:29 60.31913 24.96057 167 ft 14 kts 317°
2026-04-23 17:29 60.31830 24.95743 169 ft 13 kts 227°
2026-04-23 17:30 60.31791 24.95655 170 ft 13 kts 227°
2026-04-23 17:30 60.31630 24.95302 170 ft 17 kts 227°
2026-04-23 17:30 60.31567 24.95160 170 ft 14 kts 227°
2026-04-23 17:31 60.31496 24.95005 169 ft 16 kts 227°
2026-04-23 17:31 60.31421 24.94840 166 ft 14 kts 230°
2026-04-23 17:31 60.31415 24.94694 163 ft 9 kts 309°
2026-04-23 17:31 60.31437 24.94655 164 ft 0 kts 319°
2026-04-23 17:33 60.31439 24.94650 164 ft 3 kts 319°
2026-04-23 17:33 60.31492 24.94557 163 ft 15 kts 319°
2026-04-23 17:33 60.31551 24.94563 164 ft 11 kts 49°
2026-04-23 17:33 60.31756 24.95017 173 ft 87 kts 47°
2026-04-23 17:34 60.32341 24.96281 272 ft 147 kts 44°
2026-04-23 17:34 60.33009 24.97760 1133 ft 142 kts 44°
2026-04-23 17:34 60.34480 25.01003 2332 ft 178 kts 44°
2026-04-23 17:35 60.35380 25.02989 2805 ft 204 kts 44°
2026-04-23 17:35 60.37520 25.07719 4038 ft 249 kts 44°
2026-04-23 17:35 60.38756 25.10224 5294 ft 252 kts 36°
2026-04-23 17:36 60.40266 25.12023 6700 ft 254 kts 20°
2026-04-23 17:36 60.41976 25.12858 8093 ft 253 kts
2026-04-23 17:36 60.43729 25.12964 9593 ft 251 kts 360°
2026-04-23 17:36 60.45474 25.13010 10963 ft 251 kts 359°
2026-04-23 17:37 60.47240 25.13029 12279 ft 252 kts 356°
2026-04-23 17:37 60.48910 25.12072 13529 ft 259 kts 333°
2026-04-23 17:37 60.50805 25.05408 15093 ft 323 kts 281°
2026-04-23 17:38 60.50736 25.00878 15696 ft 314 kts 278°
2026-04-23 17:38 60.50689 24.96521 15836 ft 305 kts 280°
2026-04-23 17:38 60.50677 24.92229 15867 ft 305 kts 278°
2026-04-23 17:38 60.50467 24.87905 15863 ft 310 kts 274°
2026-04-23 17:39 60.50197 24.83570 15834 ft 310 kts 274°
2026-04-23 17:39 60.49926 24.79235 15867 ft 310 kts 274°
2026-04-23 17:39 60.49662 24.74894 15868 ft 310 kts 274°
2026-04-23 17:39 60.49568 24.70593 15868 ft 301 kts 283°
2026-04-23 17:40 60.49678 24.66370 15869 ft 300 kts 283°
2026-04-23 17:40 60.49788 24.62143 15867 ft 300 kts 283°
2026-04-23 17:40 60.49891 24.57910 15869 ft 300 kts 283°
2026-04-23 17:40 60.49985 24.53671 15873 ft 301 kts 283°
2026-04-23 17:41 60.50077 24.49434 15875 ft 301 kts 283°
2026-04-23 17:41 60.50266 24.40967 15878 ft 301 kts 283°
2026-04-23 17:41 60.50361 24.36719 15880 ft 301 kts 283°
2026-04-23 17:42 60.50536 24.28288 15855 ft 301 kts 282°
2026-04-23 17:42 60.50624 24.23994 15862 ft 301 kts 282°
2026-04-23 17:42 60.50707 24.19817 15874 ft 301 kts 282°
2026-04-23 17:43 60.50794 24.15577 15882 ft 301 kts 282°
2026-04-23 17:43 60.50878 24.11347 15884 ft 300 kts 282°
2026-04-23 17:43 60.50958 24.07101 15886 ft 300 kts 282°
2026-04-23 17:43 60.51039 24.02846 15754 ft 303 kts 282°
2026-04-23 17:44 60.51123 23.98578 15502 ft 303 kts 282°
2026-04-23 17:44 60.51199 23.94334 15251 ft 303 kts 282°
2026-04-23 17:44 60.51352 23.85812 14726 ft 298 kts 282°
2026-04-23 17:45 60.51425 23.81620 14334 ft 297 kts 281°
2026-04-23 17:45 60.51571 23.73253 13511 ft 297 kts 281°
2026-04-23 17:45 60.51641 23.69058 13079 ft 295 kts 281°
2026-04-23 17:46 60.51767 23.60782 12238 ft 291 kts 279°
2026-04-23 17:46 60.51831 23.56701 11848 ft 288 kts 280°
2026-04-23 17:46 60.51896 23.52640 11431 ft 287 kts 279°
2026-04-23 17:47 60.51958 23.48601 11014 ft 286 kts 279°
2026-04-23 17:47 60.52016 23.44579 10596 ft 284 kts 279°
2026-04-23 17:47 60.52136 23.36614 9857 ft 277 kts 278°
2026-04-23 17:48 60.52186 23.32738 9464 ft 274 kts 278°
2026-04-23 17:48 60.52236 23.28897 9087 ft 270 kts 278°
2026-04-23 17:48 60.52284 23.25124 8717 ft 265 kts 278°
2026-04-23 17:48 60.52336 23.21407 8312 ft 262 kts 278°
2026-04-23 17:49 60.52386 23.17715 7888 ft 260 kts 278°
2026-04-23 17:49 60.52433 23.14061 7469 ft 258 kts 277°
2026-04-23 17:49 60.52480 23.10438 7034 ft 256 kts 277°
2026-04-23 17:49 60.52523 23.06832 6594 ft 255 kts 277°
2026-04-23 17:50 60.52549 23.04456 6309 ft 254 kts 277°
2026-04-23 17:50 60.52628 22.97345 5383 ft 250 kts 276°
2026-04-23 17:50 60.52664 22.93825 4928 ft 248 kts 276°
2026-04-23 17:51 60.52700 22.90335 4441 ft 247 kts 277°
2026-04-23 17:51 60.52735 22.86873 3996 ft 243 kts 278°
2026-04-23 17:51 60.52812 22.78915 3395 ft 233 kts 277°
2026-04-23 17:52 60.52830 22.76754 3389 ft 220 kts 278°
2026-04-23 17:52 60.52876 22.71039 3400 ft 187 kts 279°
2026-04-23 17:52 60.52900 22.68466 3400 ft 180 kts 279°
2026-04-23 17:53 60.52970 22.63418 3136 ft 180 kts 276°
2026-04-23 17:53 60.52892 22.60874 2879 ft 181 kts 274°
2026-04-23 17:53 60.52788 22.58323 2624 ft 182 kts 273°
2026-04-23 17:54 60.52679 22.55766 2369 ft 182 kts 272°
2026-04-23 17:54 60.52572 22.53263 2221 ft 180 kts 272°
2026-04-23 17:54 60.52360 22.48265 2097 ft 174 kts 272°
2026-04-23 17:55 60.52161 22.43641 1688 ft 155 kts 272°
2026-04-23 17:55 60.52070 22.41523 1474 ft 144 kts 271°
2026-04-23 17:55 60.51986 22.39647 1282 ft 125 kts 272°
2026-04-23 17:56 60.51912 22.37961 1099 ft 116 kts 272°
2026-04-23 17:56 60.51784 22.34814 796 ft 109 kts 271°
2026-04-23 17:56 60.51718 22.33272 639 ft 111 kts 271°
2026-04-23 17:57 60.51654 22.31730 490 ft 110 kts 270°
2026-04-23 17:57 60.51587 22.30192 354 ft 110 kts 270°
2026-04-23 17:57 60.51458 22.27193 154 ft 92 kts 265°
2026-04-23 17:58 60.51398 22.25850 152 ft 126 kts 265°
2026-04-23 17:58 60.51310 22.23833 807 ft 144 kts 265°
2026-04-23 17:58 60.50672 22.22168 1593 ft 174 kts 214°
2026-04-23 17:58 60.49379 22.21646 2126 ft 205 kts 176°
2026-04-23 17:59 60.48039 22.22649 2190 ft 206 kts 137°
2026-04-23 17:59 60.47186 22.25081 2194 ft 228 kts 110°
2026-04-23 17:59 60.46523 22.28078 2215 ft 236 kts 110°
2026-04-23 17:59 60.45855 22.31133 2215 ft 238 kts 110°
2026-04-23 18:00 60.45185 22.34196 2214 ft 239 kts 109°
2026-04-23 18:00 60.44691 22.37354 2211 ft 231 kts 89°
2026-04-23 18:00 60.44665 22.40581 2217 ft 229 kts 84°
2026-04-23 18:00 60.44678 22.43794 2214 ft 227 kts 84°
2026-04-23 18:01 60.44681 22.46886 2205 ft 210 kts 84°
2026-04-23 18:01 60.44678 22.49722 2205 ft 194 kts 83°
2026-04-23 18:01 60.44678 22.52401 2211 ft 189 kts 83°
2026-04-23 18:01 60.44679 22.55045 2207 ft 188 kts 83°
2026-04-23 18:02 60.44682 22.57688 2209 ft 188 kts 82°
2026-04-23 18:02 60.44930 22.60205 2209 ft 179 kts 57°
2026-04-23 18:02 60.45660 22.62128 2211 ft 169 kts 33°
2026-04-23 18:02 60.46675 22.63202 2211 ft 163 kts 11°
2026-04-23 18:03 60.47793 22.63372 2213 ft 161 kts 354°
2026-04-23 18:03 60.48910 22.63174 2203 ft 161 kts 353°
2026-04-23 18:03 60.50019 22.62978 2199 ft 160 kts 353°
2026-04-23 18:03 60.51126 22.62782 2201 ft 160 kts 354°
2026-04-23 18:04 60.52183 22.62293 2194 ft 160 kts 328°
2026-04-23 18:04 60.52798 22.60359 2207 ft 172 kts 285°
2026-04-23 18:04 60.52803 22.57914 2207 ft 178 kts 272°
2026-04-23 18:04 60.52680 22.55413 2205 ft 179 kts 271°
2026-04-23 18:05 60.52561 22.52891 2198 ft 179 kts 271°
2026-04-23 18:05 60.52451 22.50371 2199 ft 180 kts 272°
2026-04-23 18:05 60.52344 22.47847 2043 ft 179 kts 271°
2026-04-23 18:05 60.52237 22.45396 1850 ft 168 kts 271°
2026-04-23 18:06 60.52137 22.43108 1593 ft 156 kts 271°
2026-04-23 18:06 60.52047 22.41080 1423 ft 132 kts 272°
2026-04-23 18:06 60.51973 22.39330 1227 ft 118 kts 273°
2026-04-23 18:06 60.51908 22.37709 1062 ft 113 kts 272°
2026-04-23 18:07 60.51846 22.36140 900 ft 111 kts 269°
2026-04-23 18:07 60.51777 22.34582 749 ft 111 kts 268°
2026-04-23 18:07 60.51709 22.33002 605 ft 113 kts 269°
2026-04-23 18:07 60.51639 22.31410 461 ft 112 kts 266°
2026-04-23 18:08 60.51594 22.30361 370 ft 113 kts 266°
2026-04-23 18:08 60.51498 22.28242 156 ft 111 kts 266°
2026-04-23 18:08 60.51436 22.26867 145 ft 91 kts 264°
2026-04-23 18:08 60.51366 22.25211 206 ft 154 kts 267°
2026-04-23 18:09 60.51434 22.23182 1225 ft 137 kts 298°
2026-04-23 18:09 60.52144 22.22052 2028 ft 139 kts 346°
2026-04-23 18:09 60.53189 22.22379 2266 ft 167 kts 23°
2026-04-23 18:09 60.54062 22.24271 2208 ft 205 kts 50°
2026-04-23 18:10 60.54892 22.26713 2179 ft 214 kts 50°
2026-04-23 18:10 60.55748 22.29203 2177 ft 216 kts 50°
2026-04-23 18:10 60.56606 22.31711 2177 ft 216 kts 50°
2026-04-23 18:10 60.57465 22.34227 2178 ft 216 kts 50°
2026-04-23 18:11 60.58309 22.36700 2178 ft 216 kts 50°
2026-04-23 18:11 60.59169 22.39214 2178 ft 216 kts 50°
2026-04-23 18:11 60.60025 22.41729 2179 ft 215 kts 50°
2026-04-23 18:11 60.60879 22.44223 2181 ft 215 kts 50°
2026-04-23 18:12 60.61734 22.46716 2187 ft 215 kts 49°
2026-04-23 18:12 60.62578 22.49221 2190 ft 215 kts 50°
2026-04-23 18:12 60.63419 22.51748 2214 ft 217 kts 55°
2026-04-23 18:12 60.63810 22.54774 2211 ft 229 kts 88°
2026-04-23 18:13 60.63320 22.57894 2203 ft 239 kts 122°
2026-04-23 18:13 60.62045 22.60044 2200 ft 242 kts 158°
2026-04-23 18:13 60.60399 22.60734 2197 ft 243 kts 174°
2026-04-23 18:13 60.58707 22.61112 2205 ft 246 kts 175°
2026-04-23 18:14 60.57004 22.61501 2202 ft 246 kts 174°
2026-04-23 18:14 60.55300 22.61801 2199 ft 246 kts 185°
2026-04-23 18:14 60.53752 22.60639 2204 ft 233 kts 226°
2026-04-23 18:14 60.52872 22.58253 2192 ft 194 kts 257°
2026-04-23 18:15 60.52624 22.55734 2198 ft 177 kts 272°
2026-04-23 18:15 60.52548 22.53251 2202 ft 177 kts 274°
2026-04-23 18:15 60.52463 22.50823 2203 ft 169 kts 273°
2026-04-23 18:15 60.52368 22.48508 2120 ft 159 kts 273°
2026-04-23 18:16 60.52276 22.46305 1913 ft 158 kts 272°
2026-04-23 18:16 60.52182 22.44105 1707 ft 148 kts 273°
2026-04-23 18:16 60.52097 22.42173 1561 ft 128 kts 273°
2026-04-23 18:17 60.51956 22.38810 1177 ft 113 kts 274°
2026-04-23 18:17 60.51901 22.37229 1002 ft 112 kts 274°
2026-04-23 18:17 60.51834 22.35671 862 ft 110 kts 269°
2026-04-23 18:17 60.51755 22.34138 724 ft 110 kts 269°
2026-04-23 18:18 60.51681 22.32591 584 ft 110 kts 271°
2026-04-23 18:18 60.51619 22.31052 432 ft 109 kts 270°
2026-04-23 18:18 60.51550 22.29515 284 ft 109 kts 269°
2026-04-23 18:18 60.51488 22.27985 154 ft 104 kts 267°
2026-04-23 18:19 60.51434 22.26770 146 ft 64 kts 265°
2026-04-23 18:19 60.51404 22.26085 152 ft 45 kts 265°
2026-04-23 18:19 60.51382 22.25560 153 ft 31 kts 265°
2026-04-23 18:19 60.51314 22.25273 149 ft 20 kts 207°
2026-04-23 18:20 60.51211 22.25337 149 ft 17 kts 123°
2026-04-23 18:20 60.51205 22.25566 154 ft 16 kts 85°
2026-04-23 18:20 60.51215 22.25772 156 ft 16 kts 84°
2026-04-23 18:20 60.51226 22.26018 157 ft 19 kts 84°
2026-04-23 18:21 60.51268 22.26281 152 ft 20 kts 65°
2026-04-23 18:21 60.51303 22.26580 146 ft 24 kts 87°
2026-04-23 18:21 60.51314 22.26888 151 ft 17 kts 85°
2026-04-23 18:21 60.51326 22.27139 152 ft 19 kts 83°
2026-04-23 18:22 60.51302 22.27291 158 ft 8 kts 166°
2026-04-23 18:22 60.51246 22.27262 162 ft 9 kts 179°
2026-04-23 18:22 60.51208 22.27301 168 ft 2 kts 148°
2026-04-23 18:22 60.51195 22.27317 171 ft 3 kts 149°
2026-04-23 18:23 60.51183 22.27331 173 ft 1 kts 150°
2026-04-23 18:23 60.51178 22.27337 175 ft 0 kts 150°